Previsão horária em Abramovka

Hoje, 16 Maio, Domingo

Tempo Temperatura Precipitação Vento Pressão Humidade
00:00 +21°C° 0 mm 2 m/s 742 mmHg 35%
01:00 +20°C° 0 mm 2 m/s 742 mmHg 36%
02:00 +20°C° 0 mm 2 m/s 742 mmHg 38%
03:00 +19°C° 0 mm 2 m/s 742 mmHg 39%
04:00 +19°C° 0 mm 2 m/s 742 mmHg 40%
05:00 +20°C° 0 mm 2 m/s 742 mmHg 41%
06:00 +21°C° 0 mm 2 m/s 742 mmHg 42%
07:00 +23°C° 0 mm 2 m/s 743 mmHg 43%
08:00 +25°C° 0 mm 3 m/s 743 mmHg 39%
09:00 +27°C° 0 mm 3 m/s 743 mmHg 35%
10:00 +29°C° 0 mm 4 m/s 743 mmHg 31%
11:00 +30°C° 0 mm 4 m/s 743 mmHg 28%
12:00 +31°C° 0 mm 3 m/s 743 mmHg 26%
13:00 +33°C° 0 mm 3 m/s 742 mmHg 23%
14:00 +33°C° 0 mm 3 m/s 742 mmHg 23%
15:00 +33°C° 0 mm 3 m/s 742 mmHg 23%
16:00 +33°C° 0 mm 3 m/s 742 mmHg 23%
17:00 +29°C° 0 mm 4 m/s 742 mmHg 30%
18:00 +26°C° 0 mm 4 m/s 741 mmHg 38%
19:00 +23°C° 0 mm 5 m/s 741 mmHg 45%
20:00 +23°C° 0 mm 4 m/s 741 mmHg 42%
21:00 +22°C° 0 mm 3 m/s 741 mmHg 40%
22:00 +23°C° 0 mm 1 m/s 741 mmHg 37%
23:00 +23°C° 0 mm 1 m/s 741 mmHg 38%

Amanhã, 17 Maio, Segunda-feira

Tempo Temperatura Precipitação Vento Pressão Humidade
00:00 +21°C° 0 mm 2 m/s 741 mmHg 39%
01:00 +21°C° 0 mm 2 m/s 741 mmHg 40%
02:00 +20°C° 0 mm 2 m/s 741 mmHg 43%
03:00 +20°C° 0 mm 2 m/s 741 mmHg 45%
04:00 +20°C° 0 mm 1 m/s 741 mmHg 48%
05:00 +21°C° 0.1 mm 1 m/s 741 mmHg 47%
06:00 +23°C° 0.1 mm 1 m/s 742 mmHg 47%
07:00 +24°C° 0.1 mm 1 m/s 742 mmHg 47%
08:00 +26°C° 0 mm 2 m/s 742 mmHg 42%
09:00 +27°C° 0 mm 2 m/s 742 mmHg 37%
10:00 +29°C° 0 mm 3 m/s 742 mmHg 32%
11:00 +30°C° 0 mm 3 m/s 742 mmHg 28%
12:00 +31°C° 0 mm 3 m/s 742 mmHg 24%
13:00 +33°C° 0 mm 3 m/s 742 mmHg 20%
14:00 +33°C° 0 mm 3 m/s 742 mmHg 19%
15:00 +33°C° 0 mm 3 m/s 742 mmHg 19%
16:00 +32°C° 0 mm 2 m/s 741 mmHg 18%
17:00 +31°C° 0 mm 2 m/s 741 mmHg 22%
18:00 +29°C° 0 mm 2 m/s 741 mmHg 26%
19:00 +28°C° 0 mm 1 m/s 740 mmHg 30%
20:00 +26°C° 0 mm 2 m/s 741 mmHg 34%
21:00 +24°C° 0 mm 2 m/s 741 mmHg 37%
22:00 +21°C° 0 mm 3 m/s 741 mmHg 40%
23:00 +20°C° 0 mm 3 m/s 741 mmHg 45%

Depois de amanhã, 18 Maio, Terça-feira

Tempo Temperatura Precipitação Vento Pressão Humidade
00:00 +20°C° 0 mm 3 m/s 740 mmHg 49%
01:00 +19°C° 0 mm 3 m/s 740 mmHg 53%
02:00 +19°C° 0 mm 3 m/s 740 mmHg 51%
03:00 +19°C° 0 mm 2 m/s 740 mmHg 49%
04:00 +20°C° 0 mm 1 m/s 740 mmHg 47%
05:00 +21°C° 0 mm 1 m/s 740 mmHg 45%
06:00 +23°C° 0 mm 1 m/s 740 mmHg 43%
07:00 +24°C° 0 mm 1 m/s 740 mmHg 42%
08:00 +26°C° 0 mm 1 m/s 740 mmHg 38%
09:00 +27°C° 0 mm 1 m/s 740 mmHg 34%
10:00 +29°C° 0 mm 2 m/s 740 mmHg 30%
11:00 +30°C° 0 mm 2 m/s 740 mmHg 27%
12:00 +31°C° 0 mm 2 m/s 740 mmHg 23%
13:00 +32°C° 0 mm 2 m/s 739 mmHg 20%
14:00 +32°C° 0 mm 2 m/s 739 mmHg 21%
15:00 +32°C° 0 mm 2 m/s 739 mmHg 21%
16:00 +33°C° 0 mm 3 m/s 739 mmHg 21%
17:00 +30°C° 0 mm 3 m/s 739 mmHg 27%
18:00 +29°C° 0 mm 2 m/s 739 mmHg 32%
19:00 +28°C° 0 mm 2 m/s 738 mmHg 37%
20:00 +27°C° 0 mm 2 m/s 738 mmHg 37%
21:00 +26°C° 0 mm 2 m/s 738 mmHg 37%
22:00 +25°C° 0 mm 2 m/s 738 mmHg 38%
23:00 +24°C° 0 mm 3 m/s 738 mmHg 44%

19 Maio, Quarta-feira

Tempo Temperatura Precipitação Vento Pressão Humidade
00:00 +22°C° 0 mm 4 m/s 738 mmHg 51%
01:00 +20°C° 0 mm 4 m/s 738 mmHg 57%
02:00 +20°C° 0 mm 4 m/s 738 mmHg 60%
03:00 +19°C° 0 mm 4 m/s 738 mmHg 63%
04:00 +19°C° 0 mm 4 m/s 738 mmHg 65%
05:00 +19°C° 0 mm 4 m/s 738 mmHg 64%
06:00 +20°C° 0 mm 5 m/s 739 mmHg 63%
07:00 +20°C° 0 mm 6 m/s 739 mmHg 62%
08:00 +26°C° 0 mm 7 m/s 739 mmHg 46%
09:00 +24°C° 0 mm 7 m/s 739 mmHg 48%
10:00 +23°C° 0 mm 7 m/s 739 mmHg 51%
11:00 +24°C° 0 mm 7 m/s 739 mmHg 48%
12:00 +26°C° 0 mm 7 m/s 739 mmHg 45%
13:00 +27°C° 0 mm 7 m/s 740 mmHg 43%
14:00 +27°C° 0 mm 7 m/s 740 mmHg 42%
15:00 +27°C° 0 mm 7 m/s 740 mmHg 41%
16:00 +27°C° 0 mm 7 m/s 740 mmHg 40%
17:00 +23°C° 0 mm 7 m/s 739 mmHg 50%
18:00 +23°C° 0 mm 6 m/s 739 mmHg 48%
19:00 +22°C° 0 mm 6 m/s 739 mmHg 47%
20:00 +21°C° 0 mm 5 m/s 740 mmHg 49%
21:00 +19°C° 0 mm 5 m/s 740 mmHg 52%
22:00 +17°C° 0 mm 5 m/s 740 mmHg 54%
23:00 +17°C° 0 mm 5 m/s 740 mmHg 54%

20 Maio, Quinta-feira

Tempo Temperatura Precipitação Vento Pressão Humidade
00:00 +16°C° 0 mm 6 m/s 740 mmHg 53%
01:00 +16°C° 0 mm 6 m/s 740 mmHg 53%
02:00 +15°C° 0 mm 6 m/s 740 mmHg 54%
03:00 +14°C° 0 mm 6 m/s 740 mmHg 55%
04:00 +14°C° 0 mm 5 m/s 741 mmHg 55%
05:00 +14°C° 0 mm 6 m/s 741 mmHg 55%
06:00 +15°C° 0 mm 6 m/s 741 mmHg 55%
07:00 +16°C° 0 mm 6 m/s 741 mmHg 55%
08:00 +17°C° 0 mm 6 m/s 741 mmHg 50%
09:00 +20°C° 0 mm 7 m/s 742 mmHg 44%
10:00 +21°C° 0 mm 7 m/s 742 mmHg 39%
11:00 +22°C° 0 mm 7 m/s 742 mmHg 36%
12:00 +23°C° 0 mm 7 m/s 742 mmHg 34%
13:00 +24°C° 0 mm 7 m/s 741 mmHg 31%
14:00 +24°C° 0 mm 6 m/s 741 mmHg 30%
15:00 +26°C° 0 mm 6 m/s 741 mmHg 29%
16:00 +26°C° 0 mm 6 m/s 741 mmHg 28%
17:00 +25°C° 0 mm 5 m/s 741 mmHg 33%
18:00 +23°C° 0 mm 4 m/s 741 mmHg 37%
19:00 +22°C° 0 mm 3 m/s 741 mmHg 42%
20:00 +20°C° 0 mm 3 m/s 741 mmHg 45%
21:00 +19°C° 0 mm 3 m/s 740 mmHg 47%
22:00 +17°C° 0 mm 3 m/s 740 mmHg 50%
23:00 +16°C° 0 mm 3 m/s 740 mmHg 51%

21 Maio, Sexta-feira

Tempo Temperatura Precipitação Vento Pressão Humidade
00:00 +16°C° 0 mm 3 m/s 740 mmHg 52%
01:00 +14°C° 0 mm 3 m/s 740 mmHg 53%
02:00 +14°C° 0 mm 3 m/s 741 mmHg 53%
03:00 +13°C° 0 mm 3 m/s 741 mmHg 53%
04:00 +13°C° 0 mm 3 m/s 741 mmHg 53%
05:00 +14°C° 0 mm 3 m/s 741 mmHg 51%
06:00 +17°C° 0 mm 3 m/s 742 mmHg 50%
07:00 +18°C° 0 mm 3 m/s 742 mmHg 48%
08:00 +19°C° 0 mm 4 m/s 742 mmHg 43%
09:00 +21°C° 0 mm 4 m/s 742 mmHg 39%
10:00 +23°C° 0 mm 4 m/s 742 mmHg 35%
11:00 +25°C° 0 mm 4 m/s 742 mmHg 32%
12:00 +25°C° 0 mm 3 m/s 742 mmHg 30%
13:00 +26°C° 0 mm 3 m/s 742 mmHg 27%
14:00 +26°C° 0 mm 3 m/s 742 mmHg 27%
15:00 +27°C° 0 mm 3 m/s 742 mmHg 26%
16:00 +27°C° 0 mm 3 m/s 742 mmHg 26%
17:00 +26°C° 0 mm 2 m/s 742 mmHg 30%
18:00 +25°C° 0 mm 2 m/s 742 mmHg 35%
19:00 +24°C° 0 mm 2 m/s 742 mmHg 39%
20:00 +21°C° 0 mm 2 m/s 742 mmHg 40%
21:00 +20°C° 0 mm 2 m/s 742 mmHg 41%
22:00 +18°C° 0 mm 2 m/s 742 mmHg 43%
23:00 +18°C° 0 mm 2 m/s 742 mmHg 44%
Mostrar mais

Necessitamos do seu Consentimento

A Meteoprog e os seus Fornecedores de Serviços podem armazenar e aceder a dados pessoais como cookies, identificadores do dispositivo ou outras tecnologias semelhantes existentes no seu dispositivo e processar estes dados para personalizar conteúdos e anúncios, assim como funcionalidades nas redes sociais e análise de tráfego.

  • Armazenar e/ou aceder a informações no seu dispositivo

    Os cookies, identificadores do dispositivo ou outras informações podem ser armazenados ou acedidos no seu dispositivo, para os fins acima indicados.

  • Anúncios e conteúdos personalizados, medição de anúncios e conteúdos, dados sobre o público-alvo e desenvolvimento de produtos

    Os anúncios e os conteúdos podem ser personalizados com base num perfil. Podem ser adicionados dados adicionais para uma maior personalização dos anúncios e dos conteúdos. A eficácia dos anúncios e dos conteúdos pode ser medida. Podem ser obtidas informações sobre o público que visualizou os anúncios e os conteúdos. Estes dados podem ser usados para desenvolver ou melhorar sistemas, softwares ou a experiência do utilizador.

Ao clicar em "Eu concordo”, permitirá o uso de cookies, identificadores do dispositivo e web beacons mencionados ou outras tecnologias semelhantes. As configurações do navegador do seu dispositivo podem ser alteradas.

Para certos fins, podem ser invocados interesses legítimos ao invés de consentimento. Pode ler mais informação sobre este assunto na nossa Política de Privacidade e Cookies.